| time (UTC) | temp C | wind direction | speed KPH | gust KPH | rain 1hr cm | rain 24hr cm | rain mn cm | humidity % | barometer mb |
| 20260904224105 | 25 | 309 | 0.0 | 1.6 | 0.00 | 0.64 | 0.64 | 71 | 1011.5 |
| 20260904223605 | 25 | 309 | 0.0 | 1.6 | 0.00 | 0.64 | 0.64 | 70 | 1011.5 |
| 20260904223105 | 25 | 310 | 0.0 | 1.6 | 0.00 | 0.64 | 0.64 | 70 | 1011.5 |
| 20260904222604 | 26 | 305 | 0.0 | 3.2 | 0.00 | 0.64 | 0.64 | 70 | 1011.6 |
| 20260904222104 | 26 | 303 | 0.0 | 3.2 | 0.00 | 0.64 | 0.64 | 70 | 1011.5 |
| 20260904221605 | 26 | 301 | 1.6 | 4.8 | 0.00 | 0.64 | 0.64 | 69 | 1011.5 |
| 20260904215604 | 26 | 276 | 1.6 | 8.0 | 0.00 | 0.64 | 0.64 | 66 | 1011.4 |
| 20260904214604 | 26 | 293 | 1.6 | 4.8 | 0.00 | 0.64 | 0.64 | 65 | 1011.3 |
| 20260904214105 | 26 | 286 | 3.2 | 4.8 | 0.00 | 0.64 | 0.64 | 63 | 1011.3 |
| 20260904213605 | 27 | 284 | 1.6 | 4.8 | 0.00 | 0.64 | 0.64 | 63 | 1011.3 |
| 20260904213105 | 27 | 284 | 0.0 | 4.8 | 0.00 | 0.64 | 0.64 | 61 | 1011.3 |
| 20260904212604 | 27 | 283 | 3.2 | 4.8 | 0.00 | 0.64 | 0.64 | 60 | 1011.2 |
| 20260904211604 | 27 | 302 | 1.6 | 4.8 | 0.00 | 0.64 | 0.64 | 59 | 1011.2 |
| 20260904211106 | 27 | 288 | 3.2 | 4.8 | 0.00 | 0.64 | 0.64 | 58 | 1011.2 |
| 20260904210605 | 27 | 263 | 3.2 | 4.8 | 0.00 | 0.64 | 0.64 | 58 | 1011.4 |
| 20260904210105 | 28 | 294 | 3.2 | 11.3 | 0.00 | 0.64 | 0.64 | 55 | 1011.4 |
| 20260904205605 | 28 | 307 | 4.8 | 12.9 | 0.00 | 0.64 | 0.64 | 55 | 1011.3 |
| 20260904205105 | 28 | 280 | 8.0 | 14.5 | 0.00 | 0.64 | 0.64 | 55 | 1011.4 |
| 20260904204604 | 28 | 317 | 4.8 | 8.0 | 0.00 | 0.64 | 0.64 | 54 | 1011.3 |
| 20260904203605 | 28 | 296 | 4.8 | 14.5 | 0.00 | 0.64 | 0.64 | 56 | 1011.4 |
| 20260904203105 | 29 | 288 | 4.8 | 16.1 | 0.00 | 0.64 | 0.64 | 52 | 1011.5 |
| 20260904202606 | 29 | 319 | 3.2 | 12.9 | 0.00 | 0.64 | 0.64 | 53 | 1011.6 |
| 20260904202105 | 29 | 276 | 4.8 | 16.1 | 0.00 | 0.64 | 0.64 | 53 | 1011.6 |
| 20260904201605 | 29 | 287 | 4.8 | 19.3 | 0.00 | 0.64 | 0.64 | 52 | 1011.5 |
| 20260904201104 | 29 | 295 | 8.0 | 19.3 | 0.00 | 0.64 | 0.64 | 54 | 1011.5 |
| 20260904200605 | 30 | 326 | 3.2 | 14.5 | 0.00 | 0.64 | 0.64 | 54 | 1011.5 |
| 20260904200105 | 29 | 0 | 4.8 | 19.3 | 0.00 | 0.64 | 0.64 | 52 | 1011.6 |
| 20260904195605 | 29 | 303 | 3.2 | 12.9 | 0.00 | 0.64 | 0.64 | 55 | 1011.5 |
| 20260904195105 | 29 | 301 | 8.0 | 16.1 | 0.00 | 0.64 | 0.64 | 52 | 1011.5 |
| 20260904194604 | 29 | 352 | 1.6 | 11.3 | 0.00 | 0.64 | 0.64 | 52 | 1011.6 |
| 20260904194105 | 29 | 356 | 4.8 | 11.3 | 0.00 | 0.64 | 0.64 | 53 | 1011.5 |
| 20260904193605 | 29 | 310 | 1.6 | 12.9 | 0.00 | 0.64 | 0.64 | 55 | 1011.5 |
| 20260904193104 | 29 | 292 | 4.8 | 16.1 | 0.00 | 0.64 | 0.64 | 54 | 1011.5 |
| 20260904192604 | 28 | 350 | 1.6 | 11.3 | 0.00 | 0.64 | 0.64 | 56 | 1011.5 |
| 20260904192105 | 28 | 19 | 3.2 | 14.5 | 0.00 | 0.64 | 0.64 | 57 | 1011.6 |
| 20260904191604 | 28 | 28 | 4.8 | 9.7 | 0.00 | 0.64 | 0.64 | 57 | 1011.8 |
| 20260904191105 | 28 | 20 | 4.8 | 9.7 | 0.00 | 0.64 | 0.64 | 56 | 1011.7 |
| 20260904190604 | 29 | 294 | 3.2 | 12.9 | 0.00 | 0.64 | 0.64 | 54 | 1011.8 |
| 20260904190104 | 29 | 296 | 3.2 | 11.3 | 0.00 | 0.64 | 0.64 | 56 | 1011.9 |
| 20260904185106 | 29 | 92 | 3.2 | 4.8 | 0.00 | 0.64 | 0.64 | 55 | 1012.0 |
| 20260904184605 | 29 | 10 | 1.6 | 19.3 | 0.00 | 0.64 | 0.64 | 58 | 1012.1 |
| 20260904184105 | 29 | 289 | 4.8 | 11.3 | 0.00 | 0.64 | 0.64 | 56 | 1012.1 |
| 20260904183105 | 28 | 328 | 3.2 | 14.5 | 0.00 | 0.64 | 0.64 | 57 | 1012.2 |
| 20260904182605 | 29 | 299 | 3.2 | 8.0 | 0.00 | 0.64 | 0.64 | 57 | 1012.3 |
| 20260904182105 | 28 | 80 | 4.8 | 12.9 | 0.00 | 0.64 | 0.64 | 59 | 1012.3 |
| 20260904181606 | 28 | 74 | 4.8 | 8.0 | 0.00 | 0.64 | 0.64 | 58 | 1012.2 |
| 20260904181105 | 28 | 31 | 4.8 | 9.7 | 0.00 | 0.64 | 0.64 | 59 | 1012.3 |
| 20260904180605 | 28 | 17 | 1.6 | 9.7 | 0.00 | 0.64 | 0.64 | 60 | 1012.2 |
| 20260904180105 | 28 | 29 | 9.7 | 16.1 | 0.00 | 0.64 | 0.64 | 58 | 1012.2 |
| 20260904175104 | 28 | 65 | 3.2 | 14.5 | 0.00 | 0.64 | 0.64 | 61 | 1012.1 |
| 20260904174604 | 28 | 50 | 9.7 | 19.3 | 0.00 | 0.64 | 0.64 | 59 | 1012.2 |
| 20260904174105 | 28 | 44 | 8.0 | 12.9 | 0.00 | 0.64 | 0.64 | 62 | 1012.2 |
| 20260904173606 | 28 | 70 | 4.8 | 11.3 | 0.00 | 0.64 | 0.64 | 60 | 1012.1 |
| 20260904173106 | 28 | 84 | 8.0 | 16.1 | 0.00 | 0.64 | 0.64 | 62 | 1012.2 |
| 20260904172604 | 28 | 45 | 4.8 | 16.1 | 0.00 | 0.64 | 0.64 | 60 | 1012.1 |
| 20260904172104 | 28 | 8 | 6.4 | 19.3 | 0.00 | 0.64 | 0.64 | 60 | 1012.2 |
| 20260904171605 | 28 | 307 | 4.8 | 9.7 | 0.00 | 0.64 | 0.64 | 61 | 1012.1 |
| 20260904171105 | 28 | 20 | 3.2 | 9.7 | 0.00 | 0.64 | 0.64 | 62 | 1012.1 |
| 20260904170605 | 27 | 11 | 8.0 | 19.3 | 0.00 | 0.64 | 0.64 | 65 | 1012.3 |
| 20260904170105 | 27 | 34 | 4.8 | 12.9 | 0.00 | 0.64 | 0.64 | 65 | 1012.3 |
| 20260904165604 | 27 | 23 | 6.4 | 14.5 | 0.00 | 0.64 | 0.64 | 62 | 1012.4 |
| 20260904165104 | 28 | 65 | 8.0 | 19.3 | 0.00 | 0.64 | 0.64 | 65 | 1012.3 |
| 20260904164606 | 28 | 26 | 3.2 | 11.3 | 0.00 | 0.64 | 0.64 | 64 | 1012.3 |
| 20260904164104 | 27 | 32 | 9.7 | 19.3 | 0.00 | 0.64 | 0.64 | 66 | 1012.3 |
| 20260904163604 | 27 | 19 | 6.4 | 14.5 | 0.00 | 0.64 | 0.64 | 67 | 1012.4 |
| 20260904163105 | 27 | 53 | 4.8 | 20.9 | 0.00 | 0.64 | 0.64 | 67 | 1012.5 |
| 20260904162604 | 27 | 307 | 1.6 | 4.8 | 0.00 | 0.64 | 0.64 | 67 | 1012.5 |
| 20260904162105 | 27 | 20 | 6.4 | 14.5 | 0.00 | 0.64 | 0.64 | 67 | 1012.5 |
| 20260904161604 | 27 | 30 | 8.0 | 12.9 | 0.00 | 0.64 | 0.64 | 69 | 1012.4 |
| 20260904161105 | 27 | 345 | 4.8 | 12.9 | 0.00 | 0.64 | 0.64 | 70 | 1012.4 |
| 20260904160604 | 26 | 25 | 8.0 | 19.3 | 0.00 | 0.64 | 0.64 | 69 | 1012.4 |
| 20260904160104 | 27 | 66 | 8.0 | 20.9 | 0.00 | 0.64 | 0.64 | 69 | 1012.4 |
| 20260904155105 | 26 | 0 | 3.2 | 4.8 | 0.00 | 0.64 | 0.64 | 75 | 1013.0 |
| 20260904154105 | 26 | 17 | 4.8 | 11.3 | 0.00 | 0.64 | 0.64 | 72 | 1012.9 |
| 20260904153606 | 26 | 30 | 8.0 | 16.1 | 0.00 | 0.64 | 0.64 | 72 | 1012.9 |
| 20260904153104 | 27 | 54 | 4.8 | 12.9 | 0.00 | 0.64 | 0.64 | 72 | 1012.9 |
| 20260904152104 | 27 | 45 | 4.8 | 16.1 | 0.00 | 0.64 | 0.64 | 69 | 1013.0 |
| 20260904151605 | 27 | 345 | 3.2 | 12.9 | 0.00 | 0.64 | 0.64 | 69 | 1013.0 |
| 20260904151105 | 27 | 17 | 4.8 | 22.5 | 0.00 | 0.64 | 0.64 | 69 | 1013.1 |
| 20260904150604 | 27 | 20 | 6.4 | 14.5 | 0.00 | 0.64 | 0.64 | 69 | 1013.2 |
| 20260904150105 | 27 | 9 | 6.4 | 14.5 | 0.00 | 0.64 | 0.64 | 69 | 1013.1 |
| 20260904145604 | 27 | 355 | 8.0 | 16.1 | 0.00 | 0.64 | 0.64 | 72 | 1013.1 |
| 20260904145105 | 27 | 7 | 8.0 | 12.9 | 0.00 | 0.64 | 0.64 | 72 | 1012.9 |
| 20260904144105 | 26 | 6 | 1.6 | 12.9 | 0.00 | 0.64 | 0.64 | 74 | 1013.1 |
| 20260904143605 | 26 | 311 | 6.4 | 16.1 | 0.00 | 0.64 | 0.64 | 73 | 1013.0 |
| 20260904143104 | 26 | 10 | 3.2 | 14.5 | 0.00 | 0.64 | 0.64 | 76 | 1013.0 |
| 20260904141605 | 26 | 358 | 4.8 | 12.9 | 0.00 | 0.64 | 0.64 | 79 | 1013.0 |
| 20260904141104 | 26 | 300 | 3.2 | 9.7 | 0.00 | 0.64 | 0.64 | 82 | 1013.0 |
| 20260904140604 | 25 | 277 | 3.2 | 8.0 | 0.00 | 0.64 | 0.64 | 82 | 1013.0 |
| 20260904135605 | 25 | 355 | 3.2 | 9.7 | 0.00 | 0.64 | 0.64 | 86 | 1012.9 |
| 20260904135105 | 25 | 321 | 4.8 | 12.9 | 0.00 | 0.64 | 0.64 | 87 | 1013.0 |
| 20260904134604 | 24 | 342 | 3.2 | 11.3 | 0.00 | 0.64 | 0.64 | 88 | 1012.8 |
| 20260904134104 | 24 | 308 | 4.8 | 16.1 | 0.00 | 0.64 | 0.64 | 90 | 1012.7 |
| 20260904133605 | 23 | 320 | 3.2 | 14.5 | 0.00 | 0.64 | 0.64 | 91 | 1012.8 |
| 20260904133104 | 23 | 348 | 3.2 | 9.7 | 0.00 | 0.64 | 0.64 | 93 | 1012.8 |
| 20260904132604 | 23 | 318 | 3.2 | 8.0 | 0.00 | 0.64 | 0.64 | 94 | 1012.9 |
| 20260904132104 | 23 | 259 | 1.6 | 9.7 | 0.00 | 0.64 | 0.64 | 95 | 1012.9 |
| 20260904131604 | 22 | 307 | 4.8 | 8.0 | 0.00 | 0.64 | 0.64 | 95 | 1012.8 |
| 20260904131105 | 22 | 312 | 1.6 | 8.0 | 0.00 | 0.64 | 0.64 | 96 | 1012.8 |
| 20260904130606 | 22 | 280 | 3.2 | 9.7 | 0.00 | 0.64 | 0.64 | 96 | 1013.0 |
| 20260904130104 | 22 | 252 | 1.6 | 4.8 | 0.00 | 0.64 | 0.64 | 96 | 1013.0 |
| 20260904125604 | 22 | 356 | 3.2 | 8.0 | 0.00 | 0.64 | 0.64 | 96 | 1013.1 |
| 20260904125104 | 22 | 309 | 3.2 | 9.7 | 0.00 | 0.64 | 0.64 | 96 | 1013.2 |
| 20260904124604 | 22 | 323 | 1.6 | 9.7 | 0.00 | 0.64 | 0.64 | 97 | 1013.2 |
| 20260904124104 | 21 | 317 | 3.2 | 9.7 | 0.00 | 0.64 | 0.64 | 97 | 1013.3 |
| 20260904123605 | 21 | 306 | 1.6 | 8.0 | 0.00 | 0.64 | 0.64 | 97 | 1013.1 |
| 20260904123105 | 21 | 259 | 1.6 | 4.8 | 0.00 | 0.64 | 0.64 | 97 | 1013.1 |
| 20260904122105 | 21 | 261 | 1.6 | 4.8 | 0.00 | 0.64 | 0.64 | 97 | 1013.1 |
| 20260904121605 | 21 | 261 | 0.0 | 0.0 | 0.00 | 0.64 | 0.64 | 97 | 1012.9 |
| 20260904121105 | 21 | 261 | 0.0 | 0.0 | 0.00 | 0.64 | 0.64 | 97 | 1012.8 |
| 20260904120604 | 21 | 261 | 0.0 | 0.0 | 0.00 | 0.64 | 0.64 | 97 | 1012.8 |
| 20260904120105 | 21 | 261 | 0.0 | 0.0 | 0.00 | 0.64 | 0.64 | 97 | 1012.9 |
| 20260904115604 | 21 | 261 | 0.0 | 0.0 | 0.00 | 0.64 | 0.64 | 97 | 1012.9 |
| 20260904114604 | 20 | 261 | 1.6 | 3.2 | 0.03 | 0.64 | 0.64 | 97 | 1012.8 |
| 20260904114104 | 20 | 261 | 0.0 | 0.0 | 0.03 | 0.64 | 0.64 | 97 | 1012.8 |
| 20260904113604 | 20 | 261 | 0.0 | 0.0 | 0.03 | 0.64 | 0.64 | 97 | 1012.9 |
| 20260904113104 | 20 | 261 | 0.0 | 0.0 | 0.03 | 0.64 | 0.64 | 96 | 1012.8 |
| 20260904112604 | 20 | 261 | 0.0 | 0.0 | 0.03 | 0.64 | 0.64 | 96 | 1012.9 |
| 20260904111605 | 20 | 261 | 0.0 | 0.0 | 0.03 | 0.64 | 0.64 | 96 | 1012.7 |
| 20260904111105 | 20 | 261 | 0.0 | 0.0 | 0.03 | 0.64 | 0.64 | 96 | 1012.8 |
| 20260904110605 | 20 | 261 | 0.0 | 0.0 | 0.03 | 0.64 | 0.64 | 96 | 1012.7 |
| 20260904110105 | 20 | 261 | 0.0 | 0.0 | 0.03 | 0.64 | 0.64 | 96 | 1012.6 |
| 20260904105605 | 20 | 261 | 0.0 | 0.0 | 0.03 | 0.64 | 0.64 | 96 | 1012.6 |
| 20260904105105 | 20 | 261 | 0.0 | 0.0 | 0.00 | 0.61 | 0.61 | 96 | 1012.5 |
| 20260904104605 | 20 | 261 | 0.0 | 0.0 | 0.00 | 0.61 | 0.61 | 96 | 1012.4 |
| 20260904104104 | 20 | 261 | 0.0 | 0.0 | 0.00 | 0.61 | 0.61 | 96 | 1012.4 |
| 20260904103605 | 20 | 261 | 0.0 | 0.0 | 0.00 | 0.61 | 0.61 | 96 | 1012.3 |
| 20260904103104 | 20 | 261 | 0.0 | 0.0 | 0.00 | 0.61 | 0.61 | 96 | 1012.4 |
| 20260904102104 | 20 | 261 | 0.0 | 0.0 | 0.00 | 0.61 | 0.61 | 96 | 1012.4 |
| 20260904101604 | 20 | 261 | 0.0 | 0.0 | 0.00 | 0.61 | 0.61 | 96 | 1012.4 |
| 20260904100604 | 20 | 261 | 0.0 | 1.6 | 0.00 | 0.61 | 0.61 | 96 | 1012.3 |
| 20260904100105 | 20 | 261 | 0.0 | 0.0 | 0.00 | 0.61 | 0.61 | 96 | 1012.2 |
| 20260904095604 | 20 | 261 | 0.0 | 0.0 | 0.00 | 0.61 | 0.61 | 96 | 1012.2 |
| 20260904095105 | 20 | 261 | 0.0 | 0.0 | 0.00 | 0.61 | 0.61 | 96 | 1012.0 |
| 20260904094604 | 20 | 261 | 0.0 | 0.0 | 0.00 | 0.61 | 0.61 | 96 | 1012.0 |
| 20260904094105 | 20 | 261 | 0.0 | 0.0 | 0.00 | 0.61 | 0.61 | 96 | 1011.9 |
| 20260904093605 | 20 | 261 | 0.0 | 0.0 | 0.00 | 0.61 | 0.61 | 96 | 1011.9 |
| 20260904093104 | 20 | 261 | 0.0 | 0.0 | 0.00 | 0.61 | 0.61 | 96 | 1011.8 |
| 20260904092605 | 20 | 261 | 0.0 | 1.6 | 0.00 | 0.64 | 0.61 | 96 | 1011.7 |
| 20260904091605 | 20 | 261 | 0.0 | 3.2 | 0.00 | 0.64 | 0.61 | 96 | 1011.8 |
| 20260904090604 | 20 | 261 | 0.0 | 1.6 | 0.00 | 0.64 | 0.61 | 96 | 1012.0 |
| 20260904090104 | 20 | 261 | 0.0 | 0.0 | 0.00 | 0.64 | 0.61 | 96 | 1011.9 |
| 20260904085604 | 20 | 261 | 0.0 | 0.0 | 0.00 | 0.64 | 0.61 | 96 | 1011.9 |
| 20260904085104 | 20 | 261 | 0.0 | 0.0 | 0.00 | 0.64 | 0.61 | 96 | 1011.9 |
| 20260904084605 | 20 | 261 | 0.0 | 0.0 | 0.00 | 0.64 | 0.61 | 96 | 1011.9 |
| 20260904084104 | 20 | 261 | 0.0 | 0.0 | 0.00 | 0.64 | 0.61 | 96 | 1011.8 |
| 20260904083605 | 20 | 261 | 0.0 | 1.6 | 0.00 | 0.64 | 0.61 | 96 | 1011.8 |
| 20260904083104 | 21 | 261 | 0.0 | 0.0 | 0.00 | 0.64 | 0.61 | 96 | 1011.7 |
| 20260904082105 | 21 | 261 | 0.0 | 0.0 | 0.03 | 0.64 | 0.61 | 96 | 1011.5 |
| 20260904081604 | 21 | 261 | 1.6 | 3.2 | 0.05 | 0.64 | 0.61 | 96 | 1011.4 |
| 20260904081104 | 21 | 261 | 0.0 | 0.0 | 0.10 | 0.64 | 0.61 | 96 | 1011.3 |
| 20260904080604 | 21 | 261 | 0.0 | 0.0 | 0.13 | 0.64 | 0.61 | 96 | 1011.3 |
| 20260904080104 | 21 | 261 | 0.0 | 3.2 | 0.13 | 0.64 | 0.61 | 95 | 1011.2 |
| 20260904075605 | 21 | 261 | 1.6 | 3.2 | 0.15 | 0.64 | 0.61 | 95 | 1011.2 |
| 20260904075106 | 21 | 203 | 0.0 | 1.6 | 0.18 | 0.64 | 0.61 | 95 | 1011.2 |
| 20260904074604 | 21 | 203 | 1.6 | 3.2 | 0.28 | 0.64 | 0.61 | 95 | 1011.2 |
| 20260904074106 | 21 | 202 | 0.0 | 0.0 | 0.46 | 0.64 | 0.61 | 95 | 1011.2 |
| 20260904073606 | 21 | 202 | 0.0 | 0.0 | 0.51 | 0.64 | 0.61 | 95 | 1011.1 |
| 20260904073104 | 21 | 203 | 0.0 | 0.0 | 0.51 | 0.66 | 0.61 | 95 | 1011.1 |
| 20260904072604 | 21 | 203 | 0.0 | 0.0 | 0.51 | 0.66 | 0.61 | 95 | 1011.4 |
| 20260904071605 | 21 | 211 | 0.0 | 4.8 | 0.51 | 0.61 | 0.56 | 95 | 1011.8 |
| 20260904071104 | 21 | 267 | 1.6 | 3.2 | 0.51 | 0.56 | 0.51 | 95 | 1012.2 |
| 20260904070604 | 21 | 275 | 3.2 | 4.8 | 0.48 | 0.53 | 0.48 | 95 | 1012.3 |
| 20260904070106 | 21 | 32 | 3.2 | 19.3 | 0.48 | 0.53 | 0.48 | 95 | 1012.3 |
| 20260904065604 | 21 | 265 | 8.0 | 20.9 | 0.46 | 0.51 | 0.46 | 95 | 1012.5 |
| 20260904065105 | 22 | 294 | 8.0 | 16.1 | 0.43 | 0.48 | 0.43 | 94 | 1012.5 |
| 20260904064604 | 23 | 336 | 11.3 | 29.0 | 0.33 | 0.38 | 0.33 | 96 | 1012.8 |
| 20260904064105 | 23 | 259 | 0.0 | 1.6 | 0.15 | 0.20 | 0.15 | 96 | 1012.6 |
| 20260904063105 | 22 | 259 | 0.0 | 0.0 | 0.10 | 0.15 | 0.10 | 96 | 1012.1 |
| 20260904062606 | 22 | 259 | 0.0 | 0.0 | 0.10 | 0.15 | 0.10 | 96 | 1012.0 |
| 20260904062104 | 22 | 259 | 0.0 | 0.0 | 0.08 | 0.13 | 0.08 | 95 | 1011.9 |
| 20260904061604 | 22 | 259 | 0.0 | 0.0 | 0.05 | 0.10 | 0.05 | 95 | 1011.9 |
| 20260904061104 | 22 | 259 | 0.0 | 0.0 | 0.00 | 0.05 | 0.00 | 95 | 1011.9 |
| 20260904060604 | 22 | 259 | 0.0 | 0.0 | 0.00 | 0.08 | 0.00 | 95 | 1011.8 |
| 20260904060105 | 22 | 259 | 0.0 | 0.0 | 0.00 | 0.08 | 0.00 | 95 | 1011.8 |
| 20260904055104 | 22 | 259 | 0.0 | 0.0 | 0.00 | 0.08 | 0.00 | 95 | 1011.9 |
| 20260904054606 | 22 | 259 | 0.0 | 0.0 | 0.00 | 0.08 | 0.00 | 95 | 1012.0 |
| 20260904053104 | 23 | 259 | 0.0 | 0.0 | 0.00 | 0.10 | 0.00 | 95 | 1012.2 |
| 20260904052604 | 23 | 259 | 0.0 | 0.0 | 0.00 | 0.10 | 0.00 | 95 | 1012.2 |
| 20260904052104 | 23 | 259 | 0.0 | 0.0 | 0.00 | 0.13 | 0.00 | 95 | 1012.3 |
| 20260904051604 | 23 | 259 | 0.0 | 0.0 | 0.00 | 0.13 | 0.00 | 95 | 1012.3 |
| 20260904051106 | 22 | 259 | 0.0 | 0.0 | 0.00 | 0.15 | 0.00 | 95 | 1012.3 |
| 20260904050605 | 22 | 259 | 0.0 | 0.0 | 0.00 | 0.18 | 0.00 | 95 | 1012.3 |
| 20260904050105 | 22 | 259 | 0.0 | 0.0 | 0.00 | 0.23 | 0.00 | 95 | 1012.3 |
| 20260904045605 | 22 | 259 | 0.0 | 0.0 | 0.00 | 0.28 | 0.00 | 95 | 1012.4 |
| 20260904044604 | 22 | 259 | 0.0 | 0.0 | 0.00 | 0.41 | 0.00 | 95 | 1012.3 |
| 20260904044105 | 22 | 259 | 0.0 | 0.0 | 0.00 | 0.46 | 0.00 | 95 | 1012.3 |
| 20260904043604 | 22 | 259 | 0.0 | 0.0 | 0.00 | 0.53 | 0.00 | 95 | 1012.4 |
| 20260904043104 | 22 | 259 | 0.0 | 0.0 | 0.00 | 0.58 | 0.00 | 95 | 1012.4 |
| 20260904042604 | 22 | 259 | 0.0 | 0.0 | 0.00 | 0.66 | 0.00 | 95 | 1012.4 |
| 20260904042104 | 22 | 259 | 0.0 | 0.0 | 0.00 | 0.74 | 0.00 | 95 | 1012.5 |
| 20260904041604 | 22 | 259 | 0.0 | 0.0 | 0.00 | 0.94 | 0.00 | 95 | 1012.6 |
| 20260904040605 | 22 | 259 | 0.0 | 0.0 | 0.00 | 0.94 | 0.00 | 95 | 1012.7 |
| 20260904040105 | 22 | 259 | 0.0 | 0.0 | 0.00 | 0.94 | 0.00 | 95 | 1012.7 |
| 20260904035605 | 22 | 259 | 0.0 | 0.0 | 0.00 | 0.94 | 0.94 | 94 | 1012.7 |
| 20260904034604 | 22 | 259 | 0.0 | 0.0 | 0.00 | 0.94 | 0.94 | 94 | 1012.4 |
| 20260904034105 | 22 | 259 | 0.0 | 0.0 | 0.00 | 0.94 | 0.94 | 94 | 1012.5 |
| 20260904033604 | 23 | 259 | 0.0 | 0.0 | 0.00 | 0.94 | 0.94 | 94 | 1012.5 |
| 20260904033105 | 23 | 259 | 0.0 | 0.0 | 0.00 | 0.94 | 0.94 | 94 | 1012.5 |
| 20260904032604 | 23 | 259 | 0.0 | 0.0 | 0.00 | 0.94 | 0.94 | 94 | 1012.5 |
| 20260904031604 | 23 | 259 | 0.0 | 0.0 | 0.00 | 0.94 | 0.94 | 94 | 1012.5 |
| 20260904031104 | 23 | 259 | 0.0 | 0.0 | 0.00 | 0.94 | 0.94 | 94 | 1012.5 |
| 20260904030605 | 23 | 259 | 0.0 | 0.0 | 0.00 | 0.94 | 0.94 | 94 | 1012.5 |
| 20260904030104 | 23 | 259 | 0.0 | 0.0 | 0.00 | 0.94 | 0.94 | 94 | 1012.6 |
| 20260904025604 | 23 | 259 | 0.0 | 0.0 | 0.00 | 0.94 | 0.94 | 94 | 1012.8 |
| 20260904025105 | 23 | 259 | 0.0 | 0.0 | 0.00 | 0.94 | 0.94 | 94 | 1012.9 |
| 20260904023604 | 23 | 259 | 0.0 | 0.0 | 0.00 | 0.94 | 0.94 | 94 | 1013.2 |
| 20260904023104 | 23 | 259 | 0.0 | 0.0 | 0.00 | 0.94 | 0.94 | 94 | 1013.2 |
| 20260904022604 | 23 | 259 | 0.0 | 1.6 | 0.00 | 0.94 | 0.94 | 94 | 1013.2 |
| 20260904022104 | 23 | 259 | 0.0 | 0.0 | 0.00 | 0.94 | 0.94 | 94 | 1013.2 |
| 20260904021604 | 23 | 259 | 0.0 | 0.0 | 0.00 | 0.94 | 0.94 | 94 | 1013.2 |
| 20260904020605 | 23 | 259 | 0.0 | 0.0 | 0.00 | 0.94 | 0.94 | 94 | 1013.2 |
| 20260904020106 | 23 | 259 | 0.0 | 0.0 | 0.00 | 0.94 | 0.94 | 94 | 1013.3 |
| 20260904015605 | 23 | 259 | 0.0 | 0.0 | 0.00 | 0.94 | 0.94 | 93 | 1013.3 |
| 20260904015104 | 23 | 259 | 0.0 | 0.0 | 0.00 | 0.94 | 0.94 | 93 | 1013.3 |
| 20260904014604 | 23 | 259 | 0.0 | 0.0 | 0.00 | 0.94 | 0.94 | 93 | 1013.4 |
| 20260904014104 | 23 | 259 | 0.0 | 0.0 | 0.00 | 0.94 | 0.94 | 93 | 1013.5 |
| 20260904013605 | 23 | 259 | 0.0 | 0.0 | 0.00 | 0.94 | 0.94 | 93 | 1013.7 |
| 20260904013105 | 23 | 259 | 0.0 | 0.0 | 0.00 | 0.94 | 0.94 | 93 | 1013.6 |
| 20260904012604 | 23 | 259 | 0.0 | 0.0 | 0.00 | 0.94 | 0.94 | 93 | 1013.5 |
| 20260904011629 | 23 | 259 | 0.0 | 0.0 | 0.00 | 0.94 | 0.94 | 93 | 1013.3 |
| 20260904011104 | 23 | 259 | 0.0 | 0.0 | 0.00 | 0.94 | 0.94 | 92 | 1013.2 |
| 20260904010604 | 23 | 259 | 0.0 | 0.0 | 0.00 | 0.94 | 0.94 | 92 | 1013.3 |
| 20260904010105 | 23 | 259 | 0.0 | 0.0 | 0.00 | 0.94 | 0.94 | 92 | 1013.3 |
| 20260904005605 | 23 | 259 | 0.0 | 1.6 | 0.00 | 0.94 | 0.94 | 92 | 1013.4 |
| 20260904004605 | 24 | 259 | 0.0 | 0.0 | 0.00 | 0.94 | 0.94 | 91 | 1013.3 |
| 20260904003605 | 24 | 259 | 0.0 | 0.0 | 0.00 | 0.94 | 0.94 | 91 | 1013.3 |
| 20260904002605 | 24 | 259 | 0.0 | 0.0 | 0.00 | 0.94 | 0.94 | 91 | 1013.1 |
| 20260904002104 | 25 | 259 | 0.0 | 0.0 | 0.00 | 0.94 | 0.94 | 90 | 1013.2 |
| 20260904001604 | 25 | 259 | 0.0 | 0.0 | 0.00 | 0.94 | 0.94 | 90 | 1013.2 |
| 20260904001105 | 25 | 259 | 0.0 | 0.0 | 0.00 | 0.94 | 0.94 | 90 | 1013.1 |
| 20260904000604 | 25 | 259 | 0.0 | 0.0 | 0.00 | 0.94 | 0.94 | 89 | 1013.1 |
| 20260904000104 | 25 | 259 | 0.0 | 0.0 | 0.00 | 0.94 | 0.94 | 89 | 1013.0 |
| 20260903235604 | 25 | 259 | 0.0 | 0.0 | 0.00 | 0.94 | 0.94 | 89 | 1012.9 |
| 20260903235104 | 25 | 259 | 0.0 | 0.0 | 0.00 | 0.94 | 0.94 | 88 | 1012.9 |
| 20260903234604 | 25 | 259 | 0.0 | 0.0 | 0.00 | 0.94 | 0.94 | 88 | 1013.0 |
| 20260903233604 | 26 | 259 | 0.0 | 0.0 | 0.00 | 0.94 | 0.94 | 87 | 1012.9 |
| 20260903233104 | 26 | 259 | 0.0 | 0.0 | 0.00 | 0.94 | 0.94 | 86 | 1012.8 |
| 20260903232605 | 26 | 259 | 0.0 | 0.0 | 0.00 | 0.94 | 0.94 | 85 | 1012.7 |
| 20260903232105 | 26 | 259 | 0.0 | 0.0 | 0.00 | 0.94 | 0.94 | 85 | 1012.7 |
| 20260903231604 | 26 | 259 | 0.0 | 0.0 | 0.00 | 0.94 | 0.94 | 84 | 1012.7 |
| 20260903230605 | 27 | 259 | 0.0 | 1.6 | 0.00 | 0.94 | 0.94 | 83 | 1012.7 |
| 20260903230104 | 27 | 259 | 0.0 | 1.6 | 0.00 | 0.94 | 0.94 | 83 | 1012.7 |
| 20260903225604 | 27 | 259 | 0.0 | 0.0 | 0.00 | 0.94 | 0.94 | 82 | 1012.6 |
| 20260903225104 | 27 | 259 | 0.0 | 0.0 | 0.00 | 0.94 | 0.94 | 81 | 1012.5 |
| 20260903224604 | 27 | 259 | 0.0 | 0.0 | 0.00 | 0.94 | 0.94 | 81 | 1012.7 |